Time,TemperatureF,DewpointF,PressureIn,WindDirection,WindDirectionDegrees,WindSpeedMPH,WindSpeedGustMPH,Humidity,HourlyPrecipIn,Conditions,Clouds,dailyrainin,SoftwareType,DateUTC
2013-08-30 11:00:00,78.0,66.0,30.00,SSW,202,8.0,-999.0,68,-99.99,,,-99.99,,2013-08-30 15:00:00,
2013-08-30 11:43:00,78.0,66.0,30.00,SSW,202,8.0,-999.0,68,-99.99,,,-99.99,,2013-08-30 15:43:00,
2013-08-30 11:54:00,78.0,66.0,30.00,SSW,202,8.0,-999.0,68,-99.99,,,-99.99,,2013-08-30 15:54:00,
2013-08-30 12:00:00,80.0,68.0,29.97,WSW,240,12.0,14.0,67,0.00,,,-99.99,,2013-08-30 16:00:00,
2013-08-30 12:43:00,80.0,68.0,29.97,WSW,240,12.0,14.0,67,0.00,,,-99.99,,2013-08-30 16:43:00,
2013-08-30 12:53:00,80.0,68.0,29.97,WSW,240,12.0,14.0,67,0.00,,,-99.99,,2013-08-30 16:53:00,
2013-08-30 13:00:00,79.0,67.0,29.95,SW,235,7.0,15.0,66,0.00,,,-99.99,,2013-08-30 17:00:00,
2013-08-30 13:42:00,79.0,67.0,29.95,SW,235,7.0,15.0,66,0.00,,,-99.99,,2013-08-30 17:42:00,
2013-08-30 13:53:00,79.0,67.0,29.95,SW,235,7.0,15.0,66,0.00,,,-99.99,,2013-08-30 17:53:00,
2013-08-30 14:00:00,81.0,67.0,29.93,SW,214,6.0,16.0,63,0.00,,,-99.99,,2013-08-30 18:00:00,
2013-08-30 14:42:00,81.0,67.0,29.93,SW,214,6.0,16.0,63,0.00,,,-99.99,,2013-08-30 18:42:00,
2013-08-30 14:52:00,81.0,67.0,29.93,SW,214,6.0,16.0,63,0.00,,,-99.99,,2013-08-30 18:52:00,
2013-08-30 15:00:00,82.0,67.0,29.91,WNW,301,6.0,16.0,60,0.00,,,-99.99,,2013-08-30 19:00:00,
2013-08-30 15:42:00,82.0,67.0,29.91,WNW,301,6.0,16.0,60,0.00,,,-99.99,,2013-08-30 19:42:00,
2013-08-30 15:53:00,82.0,67.0,29.91,WNW,301,6.0,16.0,60,0.00,,,-99.99,,2013-08-30 19:53:00,
2013-08-30 16:00:00,82.0,66.0,29.89,WSW,237,15.0,17.0,59,0.00,,,-99.99,,2013-08-30 20:00:00,
2013-08-30 16:43:00,82.0,66.0,29.89,WSW,237,15.0,17.0,59,0.00,,,-99.99,,2013-08-30 20:43:00,
2013-08-30 16:52:00,82.0,66.0,29.89,WSW,237,15.0,17.0,59,0.00,,,-99.99,,2013-08-30 20:52:00,
2013-08-30 17:00:00,82.0,68.0,29.89,SW,232,7.0,18.0,61,0.00,,,-99.99,,2013-08-30 21:00:00,
2013-08-30 17:44:00,82.0,68.0,29.89,SW,232,7.0,18.0,61,0.00,,,-99.99,,2013-08-30 21:44:00,
2013-08-30 17:55:00,82.0,68.0,29.89,SW,232,7.0,18.0,61,0.00,,,-99.99,,2013-08-30 21:55:00,
2013-08-30 18:00:00,81.0,68.0,29.89,WSW,240,11.0,17.0,66,0.00,,,-99.99,,2013-08-30 22:00:00,
2013-08-30 18:43:00,81.0,68.0,29.89,WSW,240,11.0,17.0,66,0.00,,,-99.99,,2013-08-30 22:43:00,
2013-08-30 18:54:00,81.0,68.0,29.89,WSW,240,11.0,17.0,66,0.00,,,-99.99,,2013-08-30 22:54:00,
2013-08-30 19:00:00,79.0,68.0,29.88,SW,217,9.0,15.0,70,0.00,,,-99.99,,2013-08-30 23:00:00,
2013-08-30 19:42:00,79.0,68.0,29.88,SW,217,9.0,15.0,70,0.00,,,-99.99,,2013-08-30 23:42:00,
2013-08-30 19:53:00,79.0,68.0,29.88,SW,217,9.0,15.0,70,0.00,,,-99.99,,2013-08-30 23:53:00,
2013-08-30 20:00:00,77.0,69.0,29.88,SSW,212,6.0,15.0,76,0.00,,,-99.99,,2013-08-31 00:00:00,
2013-08-30 20:42:00,77.0,69.0,29.88,SSW,212,6.0,15.0,76,0.00,,,-99.99,,2013-08-31 00:42:00,
2013-08-30 20:52:00,77.0,69.0,29.88,SSW,212,6.0,15.0,76,0.00,,,-99.99,,2013-08-31 00:52:00,
2013-08-30 21:42:00,75.0,69.0,29.88,SW,215,7.0,12.0,81,0.00,,,-99.99,,2013-08-31 01:42:00,